Chillicothe, MO

1:35 AM CST on November 17, 2019 (GMT -0600)
Chillicothe

Weather History for KCDJ - September, 2019

Change the Weather History Date:

Sunday, September 22, 2019

  Actual Average (KIRK) Record (KIRK)
Temperature  
Mean Temperature 68 °F -  
Max Temperature 75 °F 72 °F 96 °F (1937)
Min Temperature 61 °F 50 °F 32 °F (1953)
Cooling Degree Days 4    
Growing Degree Days 18 (Base 50)    
Moisture  
Dew Point 66 °F    
Average Humidity 93    
Maximum Humidity 100    
Minimum Humidity 84    
Precipitation  
Precipitation 1.95 in - - ()
Sea Level Pressure  
Sea Level Pressure 29.89 in    
Wind  
Wind Speed 4 mph (SSW)    
Max Wind Speed 8 mph    
Max Gust Speed 22 mph    
Averages and records for this station are not official NWS values.
T = Trace of Precipitation, MM = Missing Value Source: NWS Daily Summary

Daily Weather History Graph

Daily Weather History Graph

Search for Another Location

Airport or City:

Astronomy

Sep. 22, 2019 Rise Set
Actual Time 7:01 AM CDT 7:11 PM CDT
Civil Twilight 6:34 AM CDT 7:38 PM CDT
Nautical Twilight 6:03 AM CDT 8:10 PM CDT
Astronomical Twilight 5:31 AM CDT 8:42 PM CDT
Moon No Moon Rise 3:07 PM CDT (9/22)
Length of Visible Light 13h 03m
Length of Day
12h 09m
Last Quarter, 44% of the Moon is Illuminated
Sep 22
Last Quarter
Sep 28
New
Oct 5
First Quarter
Oct 13
Full
Oct 21
Last Quarter

Hourly Weather History & Observations

Time (CDT) Temp. Dew Point Humidity Pressure Visibility Wind Dir Wind Speed Gust Speed Precip Events Conditions
12:52 AM 72.0 °F 71.1 °F 97% 29.89 in - SE 4.6 mph - 0.25 in   Unknown
1:52 AM 72.0 °F 70.0 °F 93% 29.88 in - SSE 4.6 mph - 0.01 in   Unknown
2:52 AM 72.0 °F 70.0 °F 93% 29.86 in - South 6.9 mph - N/A   Unknown
3:52 AM 73.0 °F 69.1 °F 87% 29.88 in - WNW 4.6 mph - N/A   Unknown
4:52 AM 66.0 °F 64.9 °F 96% 29.93 in - North 8.1 mph 21.9 mph 0.02 in   Unknown
5:52 AM 64.9 °F 64.0 °F 97% 29.91 in - Variable 4.6 mph - 0.10 in   Unknown
6:52 AM 64.0 °F 64.0 °F 100% 29.91 in - ENE 3.5 mph - 0.36 in   Unknown
7:52 AM 64.0 °F 64.0 °F 100% 29.92 in - Variable 4.6 mph - 0.48 in   Unknown
8:52 AM 64.9 °F 64.9 °F 100% 29.88 in - Variable 4.6 mph - 0.13 in   Unknown
9:52 AM 64.9 °F 64.9 °F 100% 29.88 in - Calm Calm - 0.15 in   Unknown
10:52 AM 64.9 °F 64.9 °F 100% 29.87 in - Variable 4.6 mph - 0.44 in   Unknown
12:52 PM 68.0 °F 66.0 °F 93% 29.84 in - Variable 3.5 mph - 0.01 in   Unknown
1:52 PM 70.0 °F 66.9 °F 90% 29.84 in - SSW 4.6 mph - N/A   Unknown
2:52 PM 71.1 °F 66.9 °F 87% 29.82 in - SSE 3.5 mph - N/A   Unknown
3:52 PM 73.0 °F 68.0 °F 84% 29.83 in - Calm Calm - N/A   Unknown
4:52 PM 75.0 °F 70.0 °F 84% 29.83 in - Calm Calm - N/A   Unknown
5:52 PM 75.0 °F 70.0 °F 84% 29.84 in - Variable 4.6 mph - N/A   Unknown
6:52 PM 71.1 °F 68.0 °F 90% 29.89 in - NW 6.9 mph - N/A   Unknown
7:52 PM 68.0 °F 64.9 °F 90% 29.92 in - Variable 4.6 mph - N/A   Unknown
9:52 PM 64.0 °F 63.0 °F 96% 29.98 in - Calm Calm - N/A   Unknown
10:52 PM 62.1 °F 61.0 °F 96% 30.00 in - NW 3.5 mph - N/A   Unknown
11:52 PM 61.0 °F 60.1 °F 97% 30.01 in - Calm Calm - N/A   Unknown